VA7SHG-1 Weather Reports


time (UTC)temp
F
wind
direction
speed
knots
gust
knots
rain 1hr
in
rain 24hr
in
rain mn
in
humidity
%
barometer
mb
20260504130519 58 0.0 0.0 0.00 0.00 0.00 66 1010.6
20260504110519 57 0.0 0.0 0.00 0.00 0.00 73 1010.6
20260504100517 59 0.0 0.0 0.00 0.00 0.00 69 1010.5
20260504081519 63 67 0.0 2.6 0.00 0.00 0.00 60 1010.5
20260504080539 64 90 0.9 2.6 0.00 0.00 0.00 58 1010.5
20260504050518 67 25 0.9 2.6 0.00 0.00 0.00 61 1010.1
20260504045537 68 326 1.7 4.3 0.00 0.00 0.00 58 1010.1
20260504044518 69 306 1.7 4.3 0.00 0.00 0.00 55 1010.1
20260504044437 60 89 0.0 2.6 0.00 0.00 0.00 64 1015.7
20260504043518 70 159 0.0 2.6 0.00 0.00 0.00 50 1010.0
20260504042517 70 0.0 0.0 0.00 0.00 0.00 51 1010.0
20260504041518 70 78 0.0 2.6 0.00 0.00 0.00 53 1009.9
20260504040518 72 0.0 0.0 0.00 0.00 0.00 50 1009.8
20260504035517 73 345 0.0 2.6 0.00 0.00 0.00 47 1009.7
20260504034517 75 246 0.0 4.3 0.00 0.00 0.00 39 1009.7
20260504034433 60 89 0.0 2.6 0.00 0.00 0.00 64 1015.7
20260504033518 76 249 0.9 2.6 0.00 0.00 0.00 39 1009.6
20260504032517 76 259 1.7 7.0 0.00 0.00 0.00 39 1009.5
20260504031516 77 257 0.9 4.3 0.00 0.00 0.00 39 1009.5
20260504030518 78 262 4.3 11.3 0.00 0.00 0.00 38 1009.5
20260504025517 79 261 3.5 13.0 0.00 0.00 0.00 37 1009.4
20260504024517 80 259 4.3 13.0 0.00 0.00 0.00 37 1009.4
20260504024434 60 89 0.0 2.6 0.00 0.00 0.00 64 1015.7
20260504023518 80 265 4.3 13.0 0.00 0.00 0.00 37 1009.3
20260504022517 81 257 6.1 15.6 0.00 0.00 0.00 38 1009.4
20260504021517 81 265 5.2 15.6 0.00 0.00 0.00 39 1009.4
20260504020516 81 247 4.3 15.6 0.00 0.00 0.00 39 1009.5
20260504015518 82 240 2.6 13.0 0.00 0.00 0.00 39 1009.6
20260504014517 82 247 6.1 17.4 0.00 0.00 0.00 38 1009.7
20260504014432 60 89 0.0 2.6 0.00 0.00 0.00 64 1015.7
20260504013516 84 228 4.3 15.6 0.00 0.00 0.00 37 1009.7
20260504012518 84 255 3.5 17.4 0.00 0.00 0.00 37 1009.7
20260504011517 84 249 5.2 15.6 0.00 0.00 0.00 35 1009.8
20260504010517 85 228 4.3 13.0 0.00 0.00 0.00 34 1009.9
20260504005518 85 239 6.1 17.4 0.00 0.00 0.00 32 1010.0
20260504004537 85 244 6.1 13.0 0.00 0.00 0.00 32 1010.0
20260504004432 60 89 0.0 2.6 0.00 0.00 0.00 64 1015.7
20260504003517 86 260 9.6 17.4 0.00 0.00 0.00 32 1010.1
20260504002536 86 248 3.5 11.3 0.00 0.00 0.00 32 1010.1
20260504001517 85 282 8.7 20.0 0.00 0.00 0.00 32 1010.2
20260504000517 86 272 7.0 13.0 0.00 0.00 0.00 31 1010.3
20260503235556 86 267 8.7 20.0 0.00 0.00 0.00 32 1010.4
20260503234517 85 279 9.6 20.0 0.00 0.00 0.00 31 1010.4
20260503234432 60 89 0.0 2.6 0.00 0.00 0.00 64 1015.7
20260503233537 86 292 7.0 15.6 0.00 0.00 0.00 30 1010.5
20260503232516 86 298 5.2 13.0 0.00 0.00 0.00 29 1010.6
20260503231517 86 270 6.1 11.3 0.00 0.00 0.00 30 1010.8
20260503230517 87 228 2.6 7.0 0.00 0.00 0.00 29 1010.8
20260503225516 85 273 6.1 15.6 0.00 0.00 0.00 30 1011.0
20260503224516 85 292 4.3 13.0 0.00 0.00 0.00 30 1011.2
20260503224435 60 89 0.0 2.6 0.00 0.00 0.00 64 1015.7
20260503223517 85 271 9.6 17.4 0.00 0.00 0.00 30 1011.4
20260503222517 85 266 5.2 11.3 0.00 0.00 0.00 29 1011.4
20260503221516 85 278 6.1 15.6 0.00 0.00 0.00 29 1011.6
20260503220517 85 264 5.2 15.6 0.00 0.00 0.00 28 1011.7
20260503215517 84 263 6.1 11.3 0.00 0.00 0.00 28 1011.8
20260503214516 83 288 8.7 17.4 0.00 0.00 0.00 28 1012.0
20260503214437 60 89 0.0 2.6 0.00 0.00 0.00 64 1015.7
20260503213535 84 273 7.0 15.6 0.00 0.00 0.00 28 1012.1
20260503212537 84 319 5.2 11.3 0.00 0.00 0.00 27 1012.2
20260503211516 84 285 6.1 11.3 0.00 0.00 0.00 27 1012.3
20260503210536 83 274 3.5 11.3 0.00 0.00 0.00 27 1012.4
20260503205517 82 267 5.2 13.0 0.00 0.00 0.00 28 1012.6
20260503204517 82 328 6.1 11.3 0.00 0.00 0.00 28 1012.8
20260503204432 60 89 0.0 2.6 0.00 0.00 0.00 64 1015.7
20260503203516 81 303 5.2 11.3 0.00 0.00 0.00 29 1012.9
20260503202515 81 249 3.5 8.7 0.00 0.00 0.00 30 1013.0
20260503201517 82 290 6.1 15.6 0.00 0.00 0.00 30 1013.1
20260503200516 81 287 5.2 8.7 0.00 0.00 0.00 30 1013.3
20260503195515 82 313 3.5 11.3 0.00 0.00 0.00 28 1013.4
20260503194517 81 187 3.5 7.0 0.00 0.00 0.00 29 1013.6
20260503194433 60 89 0.0 2.6 0.00 0.00 0.00 64 1015.7
20260503193517 80 120 2.6 7.0 0.00 0.00 0.00 30 1013.6
20260503192516 79 150 2.6 7.0 0.00 0.00 0.00 31 1013.7
20260503191517 80 41 2.6 7.0 0.00 0.00 0.00 30 1013.8
20260503190517 79 191 1.7 7.0 0.00 0.00 0.00 29 1013.9
20260503185536 78 182 3.5 8.7 0.00 0.00 0.00 30 1014.0
20260503184515 78 103 1.7 7.0 0.00 0.00 0.00 30 1014.2
20260503184432 60 89 0.0 2.6 0.00 0.00 0.00 64 1015.7
20260503183517 79 124 1.7 4.3 0.00 0.00 0.00 30 1014.2
20260503182536 77 161 1.7 4.3 0.00 0.00 0.00 33 1014.3
20260503181516 76 78 1.7 4.3 0.00 0.00 0.00 33 1014.5
20260503180517 75 8 3.5 7.0 0.00 0.00 0.00 35 1014.6
20260503175516 76 3 2.6 7.0 0.00 0.00 0.00 34 1014.8
20260503174556 75 41 1.7 7.0 0.00 0.00 0.00 35 1014.9
20260503174432 60 89 0.0 2.6 0.00 0.00 0.00 64 1015.7
20260503173535 73 44 4.3 8.7 0.00 0.00 0.00 37 1015.1
20260503172517 73 167 2.6 4.3 0.00 0.00 0.00 37 1015.2
20260503171516 72 10 1.7 8.7 0.00 0.00 0.00 38 1015.3
20260503170515 70 91 4.3 8.7 0.00 0.00 0.00 40 1015.4
20260503150527 66 101 0.9 4.3 0.00 0.00 0.00 46 1016.2